Regional Weather Roundup
Issued by NWS

Home | Current Version | Previous Version | Graphics & Text | Print | Product List | Glossary On
Versions: 1 2 3 4 5 6 7 8 9 10 11 12 13 14 15 16 17 18 19 20 21 22 23 24 25 26 27 28 29 30 31 32 33 34 35 36 37 38 39 40 41 42 43 44 45 46 47 48 49 50
000
ASUS43 KBIS 312120
RWRND

NORTH DAKOTA REGIONAL WEATHER ROUNDUP
NATIONAL WEATHER SERVICE BISMARCK ND
400 PM CDT FRI OCT 31 2014

NOTE: "FAIR" INDICATES FEW OR NO CLOUDS BELOW 12,000 FEET WITH NO
SIGNIFICANT WEATHER AND/OR OBSTRUCTIONS TO VISIBILITY.


NDZ001>003-009>011-017-312200-
NORTHWEST NORTH DAKOTA

CITY           SKY/WX    TMP DP  RH WIND       PRES   REMARKS
WILLISTON      SUNNY     47  26  44 SE21G26   30.03F
MINOT          PTSUNNY   39  14  36 SE20G29   30.20F
MINOT AFB      PTSUNNY   39  15  38 S24G30    30.19F
$$

NDZ018>021-031>035-040>046-312200-
SOUTHWEST NORTH DAKOTA

CITY           SKY/WX    TMP DP  RH WIND       PRES   REMARKS
BISMARCK       MOSUNNY   41  14  33 S22G30    30.27F
DICKINSON      SUNNY     45  17  32 SE31G39   30.05F
GARRISON         N/A     41  19  41 S23G31    30.19F
HETTINGER ARPT SUNNY     44  16  32 SE26G39   30.10F
$$

NDZ004>008-012>016-024-026-027-054-312200-
NORTHEAST NORTH DAKOTA

CITY           SKY/WX    TMP DP  RH WIND       PRES   REMARKS
GRAND FORKS    MOSUNNY   39  20  46 S12G21    30.45F
GRND FRKS AFB  SUNNY     39  19  43 S14       30.44F
DEVILS LAKE    SUNNY     37  12  35 S18       30.33F
$$

NDZ022-023-025-028>030-036>039-047>053-312200-
SOUTHEAST NORTH DAKOTA

CITY           SKY/WX    TMP DP  RH WIND       PRES   REMARKS
FARGO          SUNNY     41  20  43 S10       30.47F
JAMESTOWN      SUNNY     38  16  40 S16       30.38F
$$




USA.gov is the U.S. government's official web portal to all federal, state and local government web resources and services.